Wind_Speed
63 65 68 68 64 59 58 57 54 51 49 48 49 51 54 58 61 62 62 60 60 63 63 62 62 58 54 52 52 51 49 46 46 47 44 43 45 43 41 39 36 34 32 31 33 32 30 29 29 27 25 25 25 24 23 22 21 21 22 21 22 23 24 24 25 26 27 28 29 29 29 29 29 29 28 27 26 27 27 27 25 25 25 26 26 27
64 65 66 65 61 57 56 57 57 56 54 53 53 52 52 55 57 60 63 62 62 66 65 65 66 63 59 56 54 53 52 49 48 49 47 44 45 45 42 40 37 35 34 34 35 34 33 33 32 30 29 29 28 27 27 26 25 25 24 23 23 23 23 24 25 26 26 27 29 30 31 32 31 31 30 29 29 29 30 29 28 28 29 29 30 30
65 67 67 64 61 59 58 58 59 60 59 58 58 56 54 55 55 56 59 59 64 68 68 68 68 67 63 58 57 56 54 52 50 50 50 49 48 46 43 40 38 37 36 37 37 37 36 36 36 34 32 31 31 31 30 30 29 29 27 26 26 26 25 26 26 26 26 27 29 30 30 32 32 31 31 31 31 31 31 31 32 32 33 33 33 34
63 65 65 64 63 62 62 62 61 62 63 64 63 62 59 57 54 55 55 54 60 66 69 71 70 70 68 63 60 58 57 56 53 51 52 53 51 49 46 43 41 40 39 39 40 39 39 38 39 38 36 34 34 34 34 33 32 32 31 30 30 30 29 29 29 28 28 29 29 29 29 30 30 30 30 30 30 30 31 32 33 34 35 36 36 36
64 62 59 60 63 64 63 63 63 64 64 64 65 65 63 59 56 55 53 51 52 58 65 70 73 74 72 68 64 60 60 60 56 54 54 55 56 54 52 49 45 43 43 43 43 43 42 41 41 41 41 39 38 38 37 36 35 35 35 35 34 34 33 32 32 32 32 32 31 30 31 30 29 29 29 28 28 29 31 31 32 34 35 36 36 36
67 64 61 61 63 65 64 63 63 64 64 64 65 65 64 63 61 59 56 54 54 56 60 64 71 77 74 71 69 63 62 63 60 58 57 57 58 58 57 55 51 48 47 47 47 46 46 45 44 44 44 44 43 41 40 39 39 40 39 38 38 37 37 36 36 36 36 36 35 34 33 32 32 30 29 28 27 29 30 30 30 32 33 34 34 34
68 65 62 61 62 64 65 65 65 65 66 67 65 62 64 65 66 66 64 63 63 59 58 59 64 74 76 74 72 67 65 65 64 63 61 60 61 62 62 61 59 55 53 52 51 50 49 49 48 48 47 47 47 45 44 44 44 44 43 42 41 41 41 40 39 40 40 40 39 38 37 36 36 34 31 30 30 31 31 31 31 31 31 32 32 32
69 67 64 63 61 62 64 65 65 65 66 67 65 64 65 66 66 68 67 68 68 64 63 61 59 67 77 76 72 71 69 67 67 66 65 64 65 66 67 67 65 62 58 56 55 54 53 52 53 52 51 50 49 49 49 49 48 47 46 45 45 45 45 43 43 44 44 44 43 42 41 40 40 38 36 34 35 34 34 33 33 33 33 33 33 33
65 65 66 65 63 62 63 62 61 62 63 63 64 65 65 67 67 66 65 64 65 67 69 66 60 66 78 78 72 73 74 71 70 69 68 68 68 70 70 70 69 67 63 59 58 57 56 56 57 56 56 54 53 52 52 52 51 51 50 49 49 49 48 47 47 48 48 48 47 46 46 45 43 42 40 40 39 38 37 36 35 35 35 35 36 35
60 63 65 65 65 64 62 60 58 60 61 61 62 65 64 65 67 65 62 59 60 64 67 65 63 68 77 77 69 71 76 75 72 70 71 71 71 72 73 72 72 70 67 64 60 58 58 59 59 59 59 58 57 56 55 55 55 55 54 54 53 53 53 52 52 52 52 51 50 50 50 49 48 46 45 44 43 42 41 40 39 38 38 38 38 38
57 60 62 63 64 64 62 61 60 60 60 60 61 64 64 65 67 67 66 63 63 67 68 66 66 70 78 79 70 67 72 73 74 73 72 73 74 74 75 74 74 72 71 68 64 61 60 61 61 61 61 61 60 60 59 59 58 59 58 58 57 57 57 57 56 56 56 55 55 54 54 53 52 51 50 49 47 46 46 44 43 41 41 41 41 41
53 58 60 60 62 62 60 60 62 62 60 59 60 61 62 65 67 68 66 64 66 71 71 70 68 70 79 82 73 67 67 68 72 73 73 74 74 75 76 76 75 74 73 71 68 65 63 63 63 63 64 64 63 62 62 62 62 62 62 62 61 61 61 61 60 60 59 59 59 58 58 57 55 54 53 53 51 50 50 49 47 46 45 45 45 45
50 53 57 58 59 60 60 61 63 63 60 59 60 61 61 63 64 66 66 65 69 73 73 72 70 71 78 81 75 70 68 66 68 71 71 71 72 73 75 76 75 74 73 73 72 69 66 64 64 65 66 66 66 66 65 65 65 65 65 65 64 64 64 64 64 64 63 63 63 62 61 60 59 58 57 56 54 53 53 52 51 51 49 49 49 49
51 51 54 57 58 59 62 63 63 64 63 64 66 65 65 64 64 66 68 70 73 75 75 72 70 71 77 79 75 72 70 66 65 66 67 67 68 68 70 71 72 71 72 72 71 70 68 65 63 64 66 67 68 68 68 68 68 68 68 68 68 67 67 67 67 67 67 67 66 65 64 63 62 61 60 59 58 57 56 56 55 55 54 53 53 52
50 51 52 53 54 55 57 60 61 61 62 64 65 65 66 66 66 67 69 71 74 75 76 74 73 76 79 78 76 74 72 69 66 65 65 65 64 64 65 66 66 66 66 68 68 67 67 65 62 62 63 65 67 68 69 69 69 70 71 72 71 71 71 70 70 70 69 69 68 68 67 66 65 64 64 63 62 61 60 59 58 58 58 57 56 56
50 51 49 48 48 49 50 53 55 56 58 59 60 62 65 66 67 70 72 72 72 73 75 75 76 80 82 80 78 77 76 75 74 71 70 69 66 65 64 63 62 62 62 62 63 63 63 62 62 61 61 62 63 66 68 69 70 71 72 74 74 73 73 73 73 72 72 71 70 70 70 70 69 69 68 67 66 65 64 63 62 62 61 61 60 60
51 52 49 49 49 47 47 48 50 53 55 56 58 61 61 61 63 66 69 71 70 74 79 80 80 81 83 83 82 79 78 78 78 77 75 74 73 72 69 66 65 65 63 62 62 62 61 61 60 60 61 61 61 63 66 68 70 71 72 73 74 74 74 74 74 74 73 73 73 72 72 72 72 72 72 71 70 70 69 68 66 65 65 64 64 63
52 52 50 51 52 49 49 50 51 53 54 55 58 56 53 56 60 61 64 67 67 71 77 80 81 82 83 85 84 81 80 80 79 78 78 77 77 76 74 72 71 70 68 66 66 65 64 63 61 60 61 62 63 63 64 66 68 70 71 72 73 73 73 73 73 73 72 72 72 73 73 73 73 74 74 74 73 73 73 72 70 69 68 67 67 67
52 53 50 50 52 51 51 53 54 53 54 57 59 55 53 57 60 60 62 65 65 67 71 73 75 77 79 81 81 81 81 80 80 80 80 80 80 79 79 78 76 75 72 71 70 69 68 68 66 64 63 64 65 65 64 63 64 66 68 69 70 70 70 71 71 71 71 71 71 72 72 72 73 73 74 74 74 74 74 73 73 72 71 70 70 69
51 54 52 50 51 51 51 54 53 52 53 55 56 56 56 58 59 61 63 64 64 66 68 70 73 74 74 74 75 76 77 77 77 77 78 79 79 80 81 82 81 80 78 76 74 73 73 73 72 69 68 66 66 67 66 64 63 63 64 66 67 67 67 68 68 69 70 71 71 71 71 71 72 72 72 72 72 72 72 72 72 72 72 72 72 71
50 53 54 53 53 53 53 53 51 50 51 54 55 54 54 55 56 59 62 62 63 66 67 69 72 72 71 71 71 72 73 73 73 73 74 75 75 76 78 81 83 84 82 80 78 77 76 75 74 73 71 70 69 69 69 68 66 65 64 65 65 66 67 67 67 68 69 70 71 71 70 70 70 70 70 69 69 69 69 69 69 69 70 71 71 71
47 50 54 55 55 56 55 53 53 53 52 52 53 53 53 55 55 55 58 58 60 64 66 66 69 67 63 63 65 67 69 71 71 71 73 76 76 75 76 78 82 84 83 81 80 79 78 77 76 76 76 75 73 73 72 72 72 70 69 68 68 68 68 69 68 68 69 69 69 70 70 69 69 68 67 67 66 66 66 66 66 67 67 67 67 67
45 48 52 55 56 57 56 55 56 58 56 53 52 52 53 55 56 57 58 56 56 62 63 64 68 66 59 57 58 58 61 64 66 68 71 75 77 77 77 79 81 82 82 81 80 79 79 78 78 79 79 78 77 77 76 75 75 75 74 73 72 72 71 71 71 71 71 70 70 70 70 69 69 68 67 67 66 65 65 65 66 66 66 65 64 64
43 45 47 50 53 55 56 58 59 60 60 59 58 56 54 54 54 56 57 55 57 61 61 62 67 65 59 57 58 57 57 58 61 64 66 70 73 74 75 76 77 78 80 80 80 79 79 78 77 77 76 76 77 77 78 78 77 77 77 77 77 76 75 75 74 74 74 73 73 72 71 71 71 70 70 69 68 67 67 66 67 67 67 66 65 63
41 42 44 45 48 52 54 57 60 61 62 63 63 62 60 58 57 57 55 55 59 62 61 63 67 63 58 56 57 58 59 59 60 62 64 68 70 69 70 71 72 74 76 77 78 78 77 77 78 77 76 75 75 75 75 76 77 78 78 79 79 79 79 78 78 78 78 77 77 76 75 74 73 73 73 72 72 71 70 69 69 69 69 69 68 66
42 43 45 46 48 51 52 53 58 61 63 65 66 66 65 64 64 63 61 60 63 63 62 66 70 66 61 58 56 59 62 64 64 64 65 69 70 69 68 69 70 70 71 72 74 75 75 75 75 77 77 75 74 74 74 75 75 76 77 78 79 80 80 80 81 81 81 81 80 79 78 77 77 77 76 75 75 74 73 72 71 71 71 71 71 70
41 42 44 47 50 52 52 51 52 55 60 65 68 69 69 69 68 67 67 67 68 67 67 68 70 70 68 64 60 61 63 65 66 67 68 70 71 72 72 73 73 72 70 70 71 73 75 74 73 73 74 74 74 73 74 74 74 73 74 75 76 78 79 81 82 83 83 83 82 81 80 80 80 80 80 79 78 77 76 75 74 73 73 73 73 72
40 40 41 43 47 50 52 53 52 53 57 60 64 67 70 71 71 71 72 72 70 71 74 71 68 71 72 68 66 65 65 65 66 67 69 70 71 73 75 76 77 76 75 74 75 76 77 76 75 72 71 72 73 73 73 73 74 74 73 73 73 74 76 78 80 82 83 83 83 83 82 81 82 82 82 81 81 80 79 78 77 76 76 75 74 74
44 43 41 41 44 46 49 53 55 56 59 60 61 64 66 68 71 73 74 74 73 75 78 75 72 73 73 70 69 69 68 68 69 70 71 72 72 73 74 75 76 77 78 78 78 79 79 80 79 76 74 73 73 74 73 72 73 74 74 74 74 74 74 75 77 78 80 82 83 83 83 83 84 83 84 84 83 83 82 81 81 80 80 79 78 78
49 47 44 46 48 47 47 49 51 54 57 59 60 62 63 65 67 70 72 73 74 77 78 78 79 79 75 71 69 70 71 72 73 75 76 76 76 76 76 77 77 77 77 77 77 77 78 78 78 78 77 75 74 75 74 74 74 74 74 75 75 75 75 75 75 75 76 77 78 80 81 82 83 84 85 85 86 86 85 85 85 84 84 83 82 82
52 51 49 52 56 53 50 49 50 52 54 56 57 58 59 62 64 67 69 70 72 75 75 76 80 82 80 76 73 72 71 71 72 75 77 78 78 79 80 80 80 80 80 80 79 79 78 78 77 77 77 75 74 74 74 76 77 77 77 76 76 76 76 76 76 75 75 75 75 76 77 79 80 81 82 84 85 86 86 87 87 88 88 88 87 87
50 52 52 55 60 59 56 55 56 57 59 61 61 58 58 59 61 64 66 67 69 72 72 74 77 78 77 78 79 78 75 73 74 74 75 76 77 78 80 81 82 83 83 83 83 84 83 82 80 79 78 77 75 73 72 74 76 77 78 78 78 78 78 78 78 78 78 77 77 78 78 79 80 80 80 81 82 83 83 84 86 87 88 89 89 90
48 50 51 54 59 60 59 60 62 63 67 70 67 62 60 60 60 62 63 64 65 67 69 72 74 74 72 74 79 82 81 80 79 79 78 77 77 78 80 81 82 83 83 84 85 85 85 84 83 83 82 82 80 78 76 74 74 75 76 77 78 78 79 79 80 80 80 80 80 80 80 81 82 82 82 81 81 82 82 83 83 83 84 85 87 88
49 51 53 54 58 60 58 58 62 67 72 73 69 65 64 65 66 67 67 66 65 66 68 69 70 70 70 72 75 78 80 82 84 85 85 83 81 81 81 81 82 83 85 85 86 85 85 85 85 85 85 85 84 83 81 78 77 77 77 77 77 77 78 79 79 80 80 80 80 80 81 82 82 83 82 82 82 82 82 82 82 81 81 82 83 84
51 52 54 55 58 60 58 59 65 71 71 68 66 67 69 70 71 72 73 72 69 69 70 70 71 70 70 71 71 73 75 77 80 85 87 87 86 86 86 87 87 88 89 90 90 89 88 88 88 89 88 87 86 86 84 83 82 81 79 78 78 78 78 79 80 80 80 79 79 80 80 81 81 81 81 80 80 81 81 81 80 80 80 80 80 81
52 53 56 57 59 60 61 63 69 71 66 62 64 66 68 69 70 72 75 76 75 74 74 74 74 73 72 73 73 73 73 74 75 77 79 81 83 84 87 89 91 92 93 94 95 94 93 92 92 92 91 91 90 90 90 89 88 87 85 83 81 81 80 81 81 82 82 81 80 80 80 80 81 80 80 80 79 79 79 79 79 79 79 80 80 79
50 52 55 58 60 61 64 67 69 69 67 65 64 63 62 64 65 66 71 74 73 72 74 74 75 74 73 73 72 72 72 72 75 76 75 75 76 77 79 82 85 87 90 93 95 96 96 97 97 97 97 96 96 96 94 93 92 92 91 90 89 87 85 84 83 83 82 82 81 81 81 81 81 81 81 81 81 80 80 80 80 80 80 80 80 80
47 49 52 56 58 59 62 66 68 70 71 67 62 60 59 60 59 59 65 68 66 64 65 68 70 71 71 70 70 68 66 68 71 74 75 74 74 74 76 78 80 82 84 86 87 89 91 93 95 96 97 98 99 100 99 98 96 95 93 92 92 91 90 89 88 87 86 85 84 83 83 83 83 83 83 83 83 83 83 83 83 82 82 82 82 81
44 47 49 53 55 55 58 62 65 68 69 64 60 59 57 57 56 56 61 65 61 58 60 61 62 63 63 63 63 63 63 65 68 69 70 72 73 74 76 78 79 80 80 81 82 83 84 86 88 90 91 91 92 93 94 95 96 96 96 94 93 93 92 92 91 91 91 92 91 91 91 90 89 88 87 86 85 84 84 84 85 85 85 85 84 83
44 46 47 49 51 53 55 59 62 65 63 59 58 58 56 55 54 56 61 63 57 55 58 59 59 59 58 58 58 59 60 63 66 67 68 70 71 73 75 78 80 80 81 80 81 81 82 82 83 85 86 86 86 86 86 87 88 90 91 91 91 91 91 90 90 90 90 91 92 94 95 96 96 95 94 92 91 89 87 86 85 86 87 87 87 86
46 48 49 49 51 52 53 57 60 61 58 57 58 60 58 57 57 59 63 62 56 54 57 59 59 59 58 58 58 58 58 59 61 63 64 64 66 67 69 71 74 76 78 80 80 81 83 83 84 83 83 84 83 83 83 83 83 83 84 84 84 84 84 83 83 82 81 81 81 82 84 87 90 93 94 95 95 95 94 92 90 89 87 87 87 87
49 51 51 52 53 53 52 54 57 57 55 54 56 58 58 59 61 63 64 62 59 57 58 59 60 60 59 59 59 59 59 59 60 61 61 62 63 63 63 64 66 68 70 73 75 76 78 80 82 84 85 86 85 85 84 84 84 83 83 83 83 82 82 81 79 78 77 75 74 73 72 72 74 77 81 84 88 90 92 94 95 94 93 91 90 88
52 54 55 54 54 55 55 55 57 58 56 52 50 50 53 57 61 62 62 63 63 63 62 61 61 60 60 59 58 58 58 59 61 62 62 63 63 64 63 62 62 63 63 64 66 67 68 70 72 75 78 80 82 83 84 84 85 85 85 85 85 85 84 83 82 80 79 77 76 75 73 72 70 68 69 70 73 76 79 83 86 90 92 94 94 94
54 56 57 57 56 58 60 61 60 60 58 54 52 51 51 55 58 59 60 62 63 63 63 64 63 62 62 61 59 58 57 58 60 63 63 63 62 63 64 64 64 64 64 64 64 64 65 65 65 66 68 69 71 73 75 76 77 78 80 81 81 81 81 80 80 79 78 77 76 76 75 75 74 72 70 68 66 66 66 69 72 76 79 83 86 89
57 58 60 62 61 61 64 64 62 60 58 58 60 59 58 59 60 58 57 58 60 60 61 62 63 63 64 65 65 64 62 61 62 62 63 63 62 62 63 63 64 64 65 66 66 66 66 66 65 66 66 67 67 68 69 70 71 71 72 73 73 74 73 74 74 74 73 72 72 71 71 71 71 72 71 71 69 65 62 61 63 65 67 69 71 74
59 60 63 65 65 64 65 64 62 61 60 60 62 64 65 67 67 63 59 56 55 56 57 59 61 62 63 64 65 66 67 67 67 65 65 65 64 64 64 63 63 63 63 63 64 65 64 64 64 65 65 66 66 67 67 68 69 70 70 70 70 70 70 69 69 69 69 68 67 67 66 65 64 64 65 67 68 68 66 64 62 62 62 63 63 64
61 63 65 66 66 67 67 64 61 61 61 62 63 66 68 70 72 71 69 65 60 56 54 54 54 56 58 60 61 62 64 66 67 67 66 67 67 66 66 65 64 63 62 61 61 61 61 61 61 61 62 63 63 63 64 64 65 66 67 68 68 69 69 70 69 69 69 68 67 66 65 63 62 61 60 61 63 65 67 67 66 64 63 62 62 61
63 65 65 65 66 69 70 67 63 62 63 64 66 67 68 70 72 73 74 74 73 70 67 64 61 60 61 63 62 60 60 62 64 64 65 67 67 66 65 64 63 62 62 61 60 59 59 59 59 59 60 60 59 59 60 60 61 62 63 64 65 66 67 68 69 69 69 69 68 67 66 64 63 62 61 60 60 61 62 64 66 66 65 65 64 62
65 66 65 65 67 69 69 66 64 64 64 65 65 66 68 70 72 73 74 75 76 77 77 77 76 74 72 71 69 66 62 60 60 62 63 66 67 66 64 62 61 60 61 61 59 58 57 57 57 57 58 58 57 57 57 58 58 59 60 60 61 62 63 64 65 66 67 67 67 66 66 65 65 65 62 59 58 60 61 61 63 64 65 66 66 66
66 66 64 65 68 69 67 64 63 65 67 66 64 65 67 69 71 72 73 74 75 76 77 79 79 78 75 73 72 71 67 63 61 62 65 66 67 67 65 63 61 59 58 59 60 59 59 59 59 59 60 60 60 59 58 58 58 59 60 61 61 61 61 61 61 61 61 62 62 63 63 63 64 65 64 59 56 57 59 61 61 62 63 64 66 67
65 64 62 64 67 67 66 64 64 66 68 67 65 65 66 68 70 70 70 72 73 74 75 77 78 79 78 75 73 71 69 65 61 62 64 66 67 67 66 65 64 63 62 62 62 62 62 63 63 63 63 63 61 61 60 60 60 61 61 62 61 61 61 61 61 60 59 58 58 58 59 59 60 62 64 63 59 57 56 57 59 60 60 61 63 65
Wind_Direction
239 241 241 241 240 236 231 228 227 228 230 233 236 237 237 237 237 238 240 240 241 243 244 245 246 244 241 240 241 242 242 238 238 238 232 231 235 236 236 237 236 237 238 240 244 246 246 247 249 251 252 253 254 258 259 258 257 255 254 254 255 257 260 262 263 262 260 260 261 261 260 258 256 256 256 256 256 258 259 259 259 259 259 260 261 263
236 239 242 243 243 242 240 236 233 232 232 231 231 235 238 239 238 237 239 240 241 242 243 244 245 245 241 239 240 241 241 240 237 238 236 232 234 236 236 236 238 240 240 241 243 247 248 248 249 249 250 253 255 258 259 259 259 258 257 257 256 255 256 258 259 260 261 261 261 261 261 261 260 260 261 261 260 261 262 263 263 262 261 261 261 262
236 239 243 245 245 243 242 239 237 236 236 234 232 232 233 236 238 237 238 241 243 244 245 244 245 246 243 239 238 239 240 240 238 237 237 235 233 236 237 237 238 240 242 244 244 245 247 250 251 250 250 252 255 257 258 259 260 261 262 261 260 259 257 256 256 258 259 259 260 261 263 263 264 264 264 264 264 265 266 266 267 266 265 264 263 263
237 240 242 243 244 243 242 241 240 239 238 237 235 232 231 232 235 235 235 238 242 245 246 246 244 245 244 240 237 238 239 239 238 237 237 237 236 235 237 238 239 239 241 244 247 247 247 249 251 253 252 251 252 254 256 258 260 261 263 262 261 261 261 260 260 260 259 258 259 260 262 263 265 266 266 266 266 267 267 266 267 267 267 267 267 268
237 240 240 239 241 242 243 242 242 242 241 239 238 236 233 231 233 234 232 235 241 243 245 247 246 244 243 242 238 236 238 239 238 237 237 238 238 236 236 238 240 243 243 244 246 248 249 249 251 253 254 252 251 252 254 256 258 259 260 260 260 260 261 262 263 263 262 261 261 261 262 263 265 266 266 267 268 267 267 266 267 267 268 269 270 271
236 238 238 238 239 241 242 242 243 244 244 243 242 241 239 237 238 238 236 239 242 241 241 245 248 246 243 243 240 235 235 238 238 237 236 237 239 238 237 236 238 242 245 246 246 247 249 250 251 252 254 254 253 252 254 255 256 256 256 257 259 260 260 261 261 262 263 263 263 263 264 265 265 265 266 267 268 267 268 269 268 269 270 271 272 272
234 235 237 238 238 239 240 242 243 245 246 246 245 245 245 245 244 243 242 245 246 242 240 243 248 249 245 242 241 237 234 236 239 238 236 237 238 240 240 239 240 242 244 246 248 248 249 250 251 251 252 253 254 253 254 254 255 255 256 256 257 258 258 259 260 260 262 263 263 264 265 265 266 265 266 266 265 266 267 268 269 271 272 273 274 274
233 234 237 238 239 239 240 242 243 244 246 248 248 247 247 248 248 247 247 250 250 246 246 247 249 250 247 243 242 241 237 234 235 238 238 237 238 239 241 243 244 246 245 244 247 248 249 250 250 250 250 251 252 253 253 253 255 256 256 257 256 257 257 257 259 259 260 262 263 263 263 263 264 265 265 263 263 264 264 266 268 270 271 273 274 275
235 235 236 238 239 239 240 242 243 242 244 246 247 247 247 249 250 250 251 253 253 252 252 251 251 251 248 245 243 242 242 238 235 236 237 237 238 239 241 243 245 247 246 244 245 247 249 249 250 250 250 251 251 251 252 253 254 256 256 256 256 256 257 257 257 257 258 259 260 262 262 262 262 263 263 263 263 263 264 265 266 267 270 271 272 274
234 235 235 237 239 240 240 241 241 242 243 244 245 247 248 249 250 251 251 252 253 254 253 252 252 253 250 246 243 242 244 244 240 236 236 237 239 240 242 243 245 246 246 244 244 246 249 249 250 251 251 252 252 252 253 253 253 254 255 256 256 256 256 256 256 256 257 258 258 259 261 262 262 262 262 262 263 264 264 265 266 267 268 270 271 272
233 234 235 235 237 239 240 240 240 241 243 244 245 246 247 248 250 250 251 252 252 253 254 253 254 257 254 246 243 242 243 245 244 240 238 238 238 240 242 243 245 246 247 246 246 248 251 252 252 253 253 253 253 253 254 255 254 254 254 255 256 256 257 257 256 256 257 258 258 259 259 260 261 262 262 263 263 264 264 264 265 265 266 268 269 271
235 235 235 235 236 237 238 239 240 241 242 242 243 245 246 247 249 250 250 251 252 253 254 255 256 258 256 248 244 244 242 242 244 243 241 240 240 241 242 244 246 248 249 249 249 250 253 255 256 256 256 255 255 255 255 256 256 256 256 255 255 256 257 258 258 257 257 257 258 258 259 260 260 261 262 263 264 265 265 265 265 265 265 266 267 268
234 235 236 236 236 236 237 238 239 240 240 240 241 241 243 245 246 247 248 249 252 255 255 256 256 256 255 251 248 249 245 242 243 244 243 242 242 243 244 245 246 248 250 251 252 252 254 257 258 259 259 258 258 257 256 256 257 258 258 257 257 256 256 257 258 258 257 257 258 258 259 260 261 262 262 263 264 264 265 266 266 266 266 266 266 267
233 234 235 235 235 236 238 239 240 241 242 243 243 243 243 244 245 246 248 249 252 255 256 257 256 256 256 253 250 251 252 251 247 246 247 246 244 245 246 248 249 249 251 252 253 254 255 257 259 260 260 260 260 259 258 258 258 259 259 258 258 258 257 257 257 258 258 259 260 260 261 261 261 262 263 263 264 264 264 265 266 266 266 266 266 267
232 233 235 237 238 238 240 241 242 244 245 245 246 247 245 245 247 249 250 251 253 255 256 256 254 255 258 255 253 254 257 259 256 252 253 253 249 247 247 249 250 251 252 253 254 254 255 255 257 259 260 260 261 261 261 260 260 259 259 258 258 258 258 258 258 258 259 260 261 262 263 263 263 262 262 263 263 263 263 263 264 264 265 265 265 266
234 234 236 238 239 237 238 240 242 243 244 245 245 246 246 247 249 251 253 253 255 255 254 253 253 256 260 258 257 258 258 260 262 259 258 258 254 252 251 250 251 251 252 253 253 254 254 254 254 256 258 259 260 260 260 261 260 260 259 259 258 258 258 259 259 259 260 261 261 262 262 263 263 263 263 263 263 263 262 262 262 262 263 264 265 265
236 236 236 237 238 236 236 237 238 240 241 242 243 244 247 250 250 252 253 253 254 255 254 254 255 257 260 259 259 259 258 259 263 263 263 262 259 257 255 252 253 253 253 253 253 253 253 253 252 253 254 256 257 258 259 259 260 260 260 260 260 260 260 260 260 260 261 261 262 262 262 263 263 263 263 264 264 264 264 263 263 262 263 263 264 264
236 236 234 237 239 238 238 238 237 239 242 242 242 243 245 247 247 249 253 253 253 255 255 256 257 258 259 259 258 259 259 259 262 263 264 264 263 261 259 255 254 254 254 254 254 254 254 253 252 250 250 252 254 256 257 258 259 260 260 261 261 261 261 261 261 261 261 261 262 262 263 263 263 263 263 263 263 264 264 265 265 264 264 264 264 264
236 235 233 235 238 238 239 241 240 240 243 245 246 244 242 243 243 244 247 250 252 254 255 255 256 257 258 258 258 259 260 261 262 263 263 265 264 263 262 260 257 256 255 254 254 255 255 255 254 251 249 249 251 253 255 257 259 260 261 262 262 263 263 263 263 263 262 262 262 262 263 263 263 263 263 263 263 263 264 265 265 266 266 266 265 265
236 237 233 232 236 235 236 240 241 240 242 245 248 246 244 246 247 245 245 248 250 253 255 255 255 256 257 258 259 260 261 262 263 263 263 265 265 264 263 262 260 258 256 255 255 254 254 255 254 253 252 251 251 252 254 256 258 259 260 262 263 264 264 264 264 263 263 262 262 262 263 263 263 263 263 263 264 264 264 265 265 266 266 266 266 267
239 239 236 233 234 235 234 235 238 239 239 240 243 245 245 247 250 250 249 248 249 252 254 255 256 256 257 258 258 258 259 260 261 261 261 263 264 264 264 263 262 260 257 256 255 254 254 255 255 256 256 255 255 254 255 256 257 257 258 259 261 263 263 263 263 262 262 262 262 262 262 262 263 263 263 264 264 264 265 265 265 265 265 265 266 266
240 241 239 235 235 236 236 235 236 237 237 238 241 242 243 244 246 249 249 248 248 250 251 253 256 255 254 255 256 256 257 257 259 260 260 260 261 262 263 263 263 263 261 258 257 257 257 257 257 257 257 257 256 256 255 256 256 256 256 256 256 258 260 261 261 261 261 261 261 260 260 261 261 262 262 263 264 265 265 266 265 265 265 265 264 264
241 241 241 238 237 237 237 236 237 237 236 236 238 239 240 241 243 246 249 248 248 249 250 251 254 253 251 251 252 253 254 255 256 258 258 258 259 260 261 262 263 263 263 262 260 259 258 258 257 256 257 257 257 256 255 255 255 255 255 254 254 254 256 257 259 260 260 260 260 260 259 260 260 261 262 263 264 265 265 265 265 264 264 263 263 262
240 241 241 240 240 239 238 237 238 238 237 236 236 236 237 238 240 243 247 247 247 249 249 249 251 251 248 246 246 248 250 251 253 255 256 256 257 259 260 261 262 262 263 263 262 260 259 258 258 257 257 257 257 257 256 255 254 253 254 254 254 253 253 254 255 257 258 259 260 260 260 260 261 261 262 263 263 264 264 264 264 264 263 262 261 261
239 240 240 241 241 240 239 238 239 238 238 238 238 237 238 239 240 242 245 246 246 247 248 249 250 249 246 244 244 246 247 247 248 251 253 255 256 257 258 260 261 263 263 263 263 262 261 260 260 259 258 257 257 257 257 256 254 253 253 253 253 253 253 252 253 253 255 256 257 259 260 260 261 262 262 263 263 263 263 263 263 262 262 261 260 259
244 243 243 244 244 243 240 240 240 240 240 240 240 239 239 241 242 243 244 245 247 247 247 249 251 250 246 244 243 243 244 244 244 246 250 254 255 255 256 258 260 261 263 263 263 262 262 261 260 259 259 258 257 257 257 257 256 254 253 253 252 252 253 253 253 253 253 254 255 256 258 259 260 261 261 262 262 263 263 262 262 261 261 261 261 260
249 248 249 249 249 247 245 244 244 244 244 244 243 242 241 242 243 244 245 246 247 248 247 248 251 252 248 243 241 241 243 244 245 246 247 250 253 255 256 256 256 257 258 259 260 261 262 261 260 259 259 258 258 256 256 256 256 256 255 254 254 253 253 253 253 254 254 254 255 255 256 257 258 259 260 261 261 262 262 262 262 261 261 261 260 260
248 248 249 252 253 251 250 248 247 248 249 248 247 246 245 245 245 245 246 246 248 250 249 248 251 253 250 245 242 241 242 244 245 247 248 248 249 253 255 256 256 255 255 256 257 259 261 261 260 259 258 258 258 257 256 255 255 256 256 256 255 255 254 254 254 254 255 255 255 256 256 256 257 258 259 260 260 261 261 261 261 261 261 261 260 260
250 247 245 250 252 251 251 251 249 250 251 251 251 250 249 248 248 248 249 248 248 251 252 250 250 252 252 250 247 244 245 245 245 246 248 249 249 250 252 254 255 256 257 257 257 258 259 259 259 258 257 256 256 257 256 255 254 254 255 256 256 256 255 255 254 254 255 255 256 256 256 256 256 256 257 258 259 259 260 260 261 261 261 261 261 261
257 252 248 252 253 250 249 251 251 252 253 253 253 253 252 252 252 252 252 251 251 252 253 253 252 251 251 252 252 249 248 248 248 247 247 248 249 251 252 253 254 255 257 258 258 258 258 259 259 258 257 256 255 255 255 255 254 254 254 254 255 256 256 256 255 255 255 255 256 256 256 257 256 256 256 257 257 258 258 259 260 261 261 261 261 261
264 259 255 259 261 255 250 252 254 254 255 255 254 254 254 254 254 254 254 254 255 256 256 256 256 254 251 251 251 250 249 247 248 249 249 249 250 252 253 253 254 254 256 257 258 259 259 259 259 259 259 258 256 255 254 254 254 254 253 253 254 254 255 256 256 256 256 256 257 257 257 257 257 257 257 257 257 257 258 258 259 260 261 262 262 262
267 265 261 263 266 261 254 255 257 258 259 258 255 254 255 256 256 256 256 257 258 260 260 260 260 259 256 254 252 250 249 248 247 248 249 250 251 252 253 253 254 254 255 257 258 259 260 259 259 259 258 258 257 256 255 253 253 253 253 253 253 253 254 255 256 257 257 257 257 257 257 257 257 257 257 258 258 259 259 259 259 260 261 262 263 263
267 268 266 266 268 265 258 257 260 261 262 260 256 255 256 258 259 260 259 258 259 261 263 263 263 263 263 260 257 253 251 251 250 249 249 249 250 251 252 254 255 255 256 257 258 259 260 261 260 259 259 258 258 257 257 255 254 253 253 253 253 253 254 255 255 256 256 257 257 257 257 257 257 258 258 258 259 260 260 260 260 260 261 261 262 263
267 268 268 268 270 269 264 262 263 263 262 261 259 258 259 259 260 261 261 260 260 261 263 265 265 265 265 264 262 260 257 256 255 252 251 251 251 251 251 253 254 255 256 257 258 259 260 261 261 261 260 259 259 259 259 258 257 256 255 254 254 254 254 254 254 255 255 255 256 257 257 257 257 258 258 259 259 259 260 260 260 260 260 261 261 262
267 268 269 269 270 271 269 266 265 263 263 263 262 260 260 260 262 263 263 262 262 262 264 266 267 266 266 265 264 264 262 261 260 257 255 255 256 255 254 253 253 254 255 257 258 259 259 260 261 261 261 261 261 261 261 260 259 258 258 257 256 256 255 255 255 254 254 254 254 255 256 257 257 257 258 258 258 259 259 260 260 260 260 260 260 261
269 269 270 270 270 271 270 268 267 268 268 266 264 261 261 262 265 266 266 264 262 263 264 265 266 267 267 266 265 264 264 263 262 261 259 258 259 259 258 256 255 255 256 256 257 259 259 260 260 261 262 263 263 263 262 262 261 261 260 259 259 258 257 256 256 256 255 254 253 254 255 256 257 257 257 257 258 258 259 259 260 260 260 260 260 261
272 271 271 271 271 271 271 270 271 272 270 266 265 265 266 267 268 269 270 267 264 264 266 266 267 267 267 267 267 268 268 267 265 262 261 261 260 260 260 259 259 258 258 258 258 259 259 260 261 261 262 262 263 264 264 264 263 263 263 262 262 261 260 258 257 256 255 255 254 254 254 256 257 257 257 257 257 257 258 258 259 259 259 260 260 260
276 275 275 274 273 273 274 273 273 273 271 269 268 269 270 270 270 272 273 271 267 266 267 267 267 267 268 268 268 269 268 268 266 264 263 263 264 263 262 261 261 261 260 260 260 261 261 261 261 262 262 263 263 264 264 265 265 265 265 265 265 265 264 263 261 259 257 256 255 255 255 256 257 257 257 256 257 257 257 257 257 258 258 258 259 259
277 277 276 275 275 275 275 274 274 275 275 275 274 272 271 271 271 271 271 270 267 267 266 266 266 267 267 267 267 267 266 266 267 267 266 265 265 265 264 263 263 263 263 262 262 262 263 263 262 263 263 264 265 265 265 265 266 266 266 266 266 267 267 267 266 265 263 261 260 259 258 258 258 258 257 256 256 256 256 256 256 256 257 257 257 257
278 277 276 274 274 275 274 274 275 276 278 280 279 277 274 272 270 268 267 267 267 266 265 265 266 266 266 266 266 266 267 267 268 268 267 265 265 265 265 264 264 264 265 265 264 263 263 264 264 265 265 266 266 267 267 267 267 267 267 267 267 268 268 268 269 269 268 267 266 265 264 263 262 262 261 259 258 256 256 256 255 255 255 256 256 256
279 278 277 275 274 273 272 272 273 275 277 278 277 275 274 272 268 264 264 267 267 266 265 266 267 267 267 266 266 265 265 265 266 266 267 267 266 265 264 264 264 265 265 266 266 266 266 266 266 267 267 267 268 268 268 268 269 269 269 269 268 268 268 268 268 268 268 268 268 268 267 267 266 265 265 264 262 260 259 258 257 256 255 255 256 256
281 279 277 276 275 274 272 271 272 273 273 274 274 274 272 270 268 266 266 267 267 265 264 265 266 267 266 266 266 265 264 263 263 264 264 265 265 264 264 264 264 265 265 266 267 267 268 268 268 268 268 268 268 269 269 269 270 270 270 270 270 270 270 269 268 268 268 267 267 267 267 267 267 267 267 266 266 265 263 262 260 259 257 256 256 256
281 280 278 277 277 275 272 270 269 270 272 273 273 273 270 268 267 267 268 267 266 264 264 264 265 265 265 265 265 265 265 264 263 262 262 262 262 263 262 262 262 262 263 264 265 265 266 267 268 267 268 268 268 269 269 270 270 271 271 271 271 272 272 271 270 270 269 269 268 267 266 266 265 266 266 266 266 267 266 266 265 263 261 260 259 258
281 280 280 278 276 274 272 270 270 272 272 270 267 266 266 266 266 266 266 266 265 264 263 262 262 262 262 261 261 260 260 261 261 262 262 262 262 262 262 261 260 260 261 262 262 262 263 264 264 265 265 266 267 268 268 268 269 269 270 271 271 271 272 272 271 271 270 270 269 269 268 268 267 266 265 264 264 264 265 265 265 265 265 264 263 262
281 280 279 277 276 275 274 274 274 274 271 267 264 262 261 262 262 262 262 262 263 263 263 261 260 260 260 260 260 259 259 258 259 260 260 261 262 262 262 262 261 261 261 261 261 261 262 262 262 262 263 264 264 265 266 266 267 267 268 268 269 269 270 270 271 271 270 269 269 268 268 268 267 267 266 264 263 262 261 261 261 262 263 264 265 264
281 280 279 278 278 277 276 276 276 274 270 267 265 262 260 259 258 256 254 254 255 258 261 262 261 260 260 260 260 260 260 260 260 260 261 261 261 261 261 262 262 263 263 262 262 262 262 263 263 263 263 263 263 263 264 264 265 265 266 266 267 267 268 268 268 269 269 269 268 267 266 265 265 265 265 264 263 262 260 259 258 257 257 258 260 261
281 280 279 279 279 278 276 275 274 273 271 268 264 261 260 259 258 256 254 252 249 249 251 255 257 258 260 262 263 262 261 261 260 260 261 261 261 261 262 262 262 262 263 263 263 262 262 263 263 263 262 263 263 264 264 265 265 266 266 267 267 267 267 267 267 267 267 268 268 267 266 264 262 261 261 261 261 261 260 259 258 257 255 255 255 257
283 281 281 280 279 278 276 274 273 271 269 267 265 263 261 260 259 258 257 255 253 251 250 250 252 254 257 260 263 263 263 261 260 258 258 259 260 260 261 261 261 261 261 262 262 262 261 261 261 262 263 263 264 265 265 266 266 267 267 268 268 268 268 268 268 268 268 268 268 267 267 265 263 261 259 258 258 258 259 258 258 257 256 255 255 256
286 284 284 282 279 277 276 276 275 272 268 266 265 264 263 261 260 259 258 257 256 255 254 253 254 254 255 256 258 259 259 258 257 256 257 257 258 259 259 260 260 260 260 261 261 261 261 261 262 262 263 265 266 267 267 267 267 267 268 268 269 269 270 270 270 270 270 270 270 270 268 266 264 262 261 261 260 258 257 257 257 257 257 256 257 257
289 288 287 285 281 278 276 275 275 273 269 267 265 264 264 263 262 261 260 259 258 256 255 255 254 254 254 255 256 257 255 253 254 255 256 257 258 259 259 259 258 258 260 261 261 261 261 262 263 264 264 265 266 267 268 268 268 268 268 268 269 270 271 272 272 272 272 272 273 273 272 270 267 264 263 263 264 262 259 258 258 258 257 257 257 258
290 290 288 285 282 280 278 275 274 273 271 269 267 266 265 264 264 262 261 261 260 259 257 256 255 254 253 253 254 253 252 252 253 255 257 258 259 259 260 259 259 260 261 262 262 262 262 262 263 264 265 265 265 266 268 269 269 269 268 268 269 270 271 272 273 274 274 275 275 275 275 274 272 269 265 264 266 268 265 262 261 261 260 259 258 258
Height
5687 5688 5689 5697 5707 5717 5723 5726 5729 5731 5731 5734 5737 5737 5739 5740 5745 5749 5750 5754 5757 5755 5758 5761 5762 5767 5774 5777 5778 5780 5783 5786 5788 5789 5792 5794 5794 5796 5798 5801 5804 5805 5807 5808 5807 5808 5810 5811 5812 5814 5816 5816 5817 5818 5819 5820 5821 5821 5821 5822 5823 5823 5823 5825 5826 5826 5827 5827 5827 5827 5827 5828 5828 5828 5829 5830 5831 5830 5831 5831 5832 5832 5832 5832 5832 5831
5681 5682 5686 5698 5709 5715 5719 5721 5724 5724 5724 5728 5729 5730 5733 5734 5738 5743 5744 5748 5750 5748 5752 5755 5755 5759 5767 5771 5774 5776 5778 5781 5784 5785 5788 5791 5791 5792 5795 5798 5801 5803 5805 5805 5805 5806 5807 5808 5809 5811 5812 5813 5814 5815 5816 5816 5817 5818 5819 5820 5820 5820 5820 5821 5821 5822 5823 5824 5823 5823 5824 5824 5824 5825 5826 5827 5828 5828 5828 5828 5829 5828 5828 5828 5828 5828
5675 5678 5688 5699 5705 5708 5710 5713 5715 5716 5718 5720 5721 5723 5725 5729 5734 5736 5740 5744 5743 5742 5746 5748 5748 5752 5759 5766 5769 5771 5774 5776 5779 5782 5784 5785 5787 5789 5792 5795 5798 5800 5801 5801 5802 5803 5805 5805 5806 5807 5809 5811 5812 5812 5812 5813 5814 5814 5815 5817 5817 5817 5817 5817 5818 5818 5819 5819 5819 5820 5820 5820 5821 5822 5823 5824 5824 5825 5825 5825 5825 5824 5824 5824 5824 5824
5670 5678 5691 5696 5696 5698 5701 5705 5708 5709 5711 5713 5714 5715 5718 5726 5728 5728 5735 5739 5736 5737 5739 5739 5741 5745 5750 5758 5764 5767 5769 5772 5775 5778 5780 5781 5783 5786 5789 5791 5793 5796 5797 5798 5798 5800 5801 5802 5802 5803 5805 5808 5808 5808 5809 5810 5810 5811 5811 5812 5813 5813 5813 5814 5814 5815 5815 5815 5815 5816 5816 5817 5818 5819 5819 5820 5821 5821 5821 5821 5821 5820 5820 5819 5820 5821
5668 5679 5687 5688 5688 5691 5694 5697 5701 5702 5705 5709 5710 5711 5715 5722 5723 5724 5731 5732 5730 5731 5731 5732 5732 5734 5742 5749 5757 5763 5764 5766 5771 5774 5776 5777 5778 5781 5784 5785 5788 5791 5793 5794 5795 5796 5797 5799 5799 5800 5801 5803 5804 5804 5805 5806 5807 5807 5807 5807 5808 5808 5809 5810 5810 5811 5811 5811 5811 5812 5812 5813 5814 5815 5816 5817 5818 5817 5817 5817 5817 5816 5815 5815 5816 5817
5667 5676 5678 5679 5682 5685 5687 5690 5694 5697 5701 5705 5707 5710 5714 5718 5718 5720 5724 5724 5723 5722 5726 5728 5721 5723 5737 5741 5747 5757 5759 5761 5767 5769 5771 5772 5773 5775 5777 5780 5783 5785 5788 5790 5791 5792 5793 5795 5796 5797 5797 5798 5799 5800 5802 5802 5802 5802 5802 5803 5803 5804 5804 5805 5806 5806 5805 5806 5807 5808 5809 5809 5810 5812 5813 5814 5815 5814 5813 5814 5813 5812 5812 5812 5812 5813
5663 5671 5672 5673 5676 5679 5681 5685 5690 5693 5695 5697 5704 5710 5710 5710 5712 5714 5717 5716 5714 5716 5722 5723 5715 5716 5727 5732 5738 5750 5753 5757 5760 5762 5766 5768 5768 5769 5771 5774 5777 5780 5783 5785 5787 5788 5789 5790 5791 5792 5792 5793 5794 5796 5797 5797 5797 5796 5797 5799 5799 5799 5799 5800 5801 5801 5801 5801 5802 5804 5805 5805 5805 5807 5809 5810 5810 5810 5810 5810 5810 5809 5809 5809 5808 5809
5660 5668 5667 5668 5672 5674 5676 5680 5686 5689 5688 5692 5702 5705 5702 5704 5706 5708 5711 5708 5708 5714 5714 5714 5714 5710 5711 5723 5736 5741 5744 5750 5754 5755 5760 5762 5763 5763 5764 5767 5769 5773 5777 5780 5781 5783 5784 5785 5785 5786 5787 5788 5789 5790 5791 5791 5791 5792 5793 5794 5794 5794 5795 5796 5796 5795 5796 5796 5797 5798 5800 5800 5801 5802 5804 5805 5805 5805 5806 5806 5807 5807 5806 5806 5805 5805
5660 5663 5663 5665 5667 5668 5671 5677 5683 5683 5683 5690 5696 5695 5697 5699 5699 5702 5704 5702 5705 5705 5700 5705 5712 5704 5699 5716 5732 5733 5734 5741 5748 5751 5753 5755 5757 5757 5758 5760 5762 5766 5770 5774 5776 5777 5779 5779 5779 5779 5780 5782 5783 5784 5785 5786 5787 5787 5788 5788 5789 5789 5789 5790 5790 5790 5790 5791 5792 5793 5793 5795 5796 5797 5799 5799 5800 5800 5801 5802 5803 5803 5803 5803 5802 5802
5653 5655 5658 5659 5659 5663 5669 5674 5677 5677 5680 5687 5689 5688 5693 5693 5692 5696 5696 5697 5699 5692 5690 5701 5707 5699 5693 5707 5723 5726 5727 5734 5742 5746 5747 5749 5751 5750 5752 5754 5755 5759 5762 5767 5770 5772 5773 5773 5773 5774 5774 5776 5777 5778 5779 5780 5781 5781 5782 5783 5783 5783 5783 5783 5784 5784 5784 5786 5787 5787 5788 5789 5790 5792 5793 5794 5795 5795 5796 5797 5798 5799 5799 5798 5798 5798
5646 5648 5650 5652 5654 5659 5665 5668 5670 5672 5677 5681 5681 5683 5687 5686 5686 5689 5688 5692 5689 5680 5686 5699 5703 5699 5688 5695 5713 5720 5723 5729 5733 5738 5741 5743 5744 5745 5746 5748 5750 5752 5754 5759 5763 5766 5767 5767 5767 5768 5768 5770 5770 5772 5773 5773 5775 5775 5776 5776 5777 5778 5777 5777 5778 5778 5779 5779 5781 5782 5782 5783 5785 5786 5788 5788 5790 5790 5791 5792 5793 5794 5794 5793 5794 5794
5641 5641 5643 5647 5651 5655 5659 5661 5664 5668 5671 5673 5674 5677 5680 5679 5680 5680 5680 5683 5676 5671 5685 5697 5699 5693 5678 5685 5706 5713 5718 5724 5723 5727 5733 5736 5739 5740 5740 5742 5745 5746 5747 5751 5755 5759 5760 5760 5762 5762 5762 5763 5763 5765 5766 5767 5767 5768 5769 5769 5770 5772 5771 5771 5771 5772 5773 5773 5774 5775 5776 5777 5779 5780 5782 5783 5784 5785 5785 5786 5787 5788 5788 5788 5788 5788
5634 5635 5639 5642 5645 5650 5653 5655 5659 5662 5664 5666 5668 5671 5672 5672 5673 5671 5672 5674 5668 5670 5685 5691 5689 5681 5671 5683 5699 5703 5711 5717 5716 5718 5724 5730 5733 5734 5734 5736 5739 5741 5742 5744 5747 5751 5754 5754 5754 5754 5755 5756 5756 5758 5759 5760 5760 5760 5761 5762 5763 5765 5765 5764 5765 5765 5766 5766 5766 5768 5770 5771 5773 5774 5775 5777 5778 5779 5780 5780 5781 5781 5782 5782 5782 5782
5628 5631 5633 5634 5639 5645 5647 5650 5654 5657 5659 5660 5662 5666 5666 5665 5665 5663 5665 5668 5665 5670 5679 5683 5678 5668 5666 5681 5693 5699 5704 5706 5711 5716 5718 5723 5726 5727 5729 5730 5732 5736 5737 5738 5740 5743 5746 5748 5748 5747 5747 5747 5748 5750 5751 5752 5753 5753 5753 5754 5756 5757 5758 5758 5758 5758 5759 5760 5761 5762 5764 5766 5767 5768 5769 5770 5772 5773 5773 5774 5774 5774 5775 5775 5775 5775
5623 5626 5628 5631 5637 5643 5644 5647 5651 5654 5655 5654 5658 5660 5658 5659 5660 5658 5661 5663 5662 5668 5673 5673 5666 5655 5661 5680 5692 5696 5697 5697 5704 5712 5711 5712 5717 5722 5724 5725 5726 5729 5731 5732 5734 5735 5738 5740 5740 5739 5740 5740 5741 5742 5743 5744 5745 5745 5745 5746 5748 5749 5750 5750 5751 5752 5753 5754 5755 5756 5757 5758 5759 5760 5761 5763 5764 5765 5766 5767 5767 5767 5767 5768 5768 5768
5619 5621 5627 5630 5633 5638 5640 5643 5646 5648 5647 5648 5652 5651 5649 5656 5659 5655 5656 5659 5660 5660 5660 5661 5656 5651 5662 5679 5685 5688 5691 5693 5694 5698 5702 5704 5709 5714 5716 5719 5720 5721 5722 5724 5726 5727 5728 5731 5733 5733 5733 5733 5733 5733 5734 5735 5736 5737 5737 5738 5739 5741 5742 5743 5744 5746 5747 5748 5748 5749 5749 5750 5751 5752 5753 5754 5756 5756 5757 5759 5759 5760 5761 5761 5761 5762
5614 5617 5624 5625 5626 5632 5636 5638 5639 5638 5639 5643 5644 5643 5647 5656 5656 5650 5649 5653 5654 5647 5646 5652 5653 5653 5661 5668 5675 5681 5686 5688 5685 5687 5693 5695 5698 5701 5705 5711 5713 5711 5714 5716 5717 5718 5719 5722 5724 5726 5726 5725 5725 5725 5726 5727 5727 5728 5729 5730 5731 5733 5734 5735 5737 5739 5739 5740 5741 5741 5742 5742 5743 5743 5744 5746 5747 5747 5748 5750 5751 5753 5754 5755 5755 5755
5609 5612 5619 5621 5623 5628 5631 5631 5632 5632 5634 5636 5635 5640 5648 5648 5645 5645 5643 5644 5644 5636 5638 5647 5648 5651 5655 5657 5667 5675 5677 5681 5681 5683 5684 5683 5686 5690 5694 5699 5701 5702 5706 5707 5708 5709 5710 5713 5715 5717 5718 5717 5717 5717 5718 5719 5719 5720 5722 5722 5723 5725 5726 5727 5729 5731 5732 5732 5733 5733 5733 5734 5734 5735 5736 5737 5738 5739 5740 5741 5743 5744 5746 5747 5747 5747
5605 5607 5614 5617 5618 5622 5625 5624 5626 5629 5631 5629 5630 5638 5641 5635 5636 5641 5636 5634 5636 5631 5632 5640 5641 5643 5646 5650 5661 5667 5670 5675 5676 5675 5676 5674 5676 5680 5680 5684 5688 5692 5695 5696 5699 5701 5702 5703 5704 5707 5710 5709 5709 5710 5712 5713 5713 5714 5714 5714 5715 5717 5719 5720 5721 5723 5724 5724 5725 5725 5725 5726 5726 5727 5728 5729 5730 5730 5732 5733 5734 5736 5737 5738 5738 5739
5602 5602 5608 5612 5611 5615 5619 5618 5620 5625 5628 5627 5627 5630 5631 5629 5631 5633 5630 5630 5631 5627 5627 5632 5633 5634 5639 5647 5657 5661 5665 5668 5665 5666 5667 5665 5665 5667 5668 5671 5676 5679 5682 5685 5689 5691 5692 5693 5695 5698 5701 5702 5704 5705 5705 5707 5707 5708 5708 5708 5709 5710 5711 5713 5713 5715 5715 5715 5717 5717 5718 5718 5719 5719 5720 5721 5722 5723 5724 5725 5726 5727 5728 5729 5729 5730
5597 5597 5601 5605 5605 5606 5610 5613 5616 5620 5622 5621 5621 5623 5625 5626 5625 5625 5624 5626 5626 5622 5623 5624 5623 5628 5637 5643 5649 5653 5656 5657 5655 5656 5657 5655 5654 5656 5657 5659 5661 5665 5671 5677 5679 5682 5684 5687 5689 5691 5692 5694 5696 5697 5698 5699 5700 5701 5701 5702 5702 5702 5703 5704 5705 5706 5706 5707 5708 5709 5710 5711 5711 5712 5712 5713 5714 5714 5716 5716 5717 5718 5719 5719 5720 5721
5591 5592 5594 5598 5599 5599 5605 5611 5612 5612 5613 5614 5616 5619 5620 5620 5619 5617 5614 5618 5621 5617 5617 5618 5613 5620 5632 5636 5640 5645 5646 5647 5647 5645 5646 5647 5645 5646 5648 5649 5650 5653 5661 5669 5672 5673 5676 5679 5681 5681 5682 5684 5686 5688 5689 5690 5691 5692 5693 5694 5694 5694 5694 5695 5696 5696 5697 5698 5699 5700 5702 5703 5703 5704 5705 5706 5706 5707 5708 5708 5709 5709 5710 5711 5712 5712
5586 5586 5587 5590 5592 5594 5600 5604 5603 5603 5605 5607 5608 5611 5613 5612 5612 5610 5607 5613 5615 5609 5611 5613 5605 5609 5625 5631 5633 5636 5636 5638 5639 5636 5637 5638 5637 5638 5640 5640 5642 5645 5649 5656 5660 5663 5664 5667 5668 5669 5671 5673 5675 5677 5679 5680 5681 5682 5682 5684 5685 5686 5686 5686 5687 5687 5688 5689 5690 5691 5693 5694 5695 5695 5696 5698 5698 5699 5700 5700 5700 5701 5702 5703 5704 5704
5580 5581 5582 5583 5585 5588 5592 5595 5595 5597 5599 5599 5600 5603 5604 5604 5605 5603 5603 5607 5605 5600 5605 5605 5596 5601 5616 5623 5626 5627 5629 5632 5632 5628 5628 5630 5631 5632 5632 5632 5633 5636 5639 5643 5646 5650 5652 5654 5656 5658 5661 5663 5664 5666 5668 5669 5671 5672 5673 5673 5674 5676 5677 5677 5678 5678 5678 5680 5681 5682 5684 5685 5686 5687 5688 5689 5689 5691 5691 5691 5692 5693 5694 5695 5696 5697
5576 5578 5578 5578 5579 5581 5584 5587 5588 5590 5592 5592 5592 5595 5596 5597 5598 5597 5597 5599 5594 5592 5598 5595 5587 5595 5608 5614 5618 5621 5621 5623 5622 5619 5621 5623 5624 5625 5626 5627 5627 5628 5631 5633 5634 5637 5641 5644 5646 5648 5650 5653 5654 5655 5656 5658 5659 5661 5662 5663 5664 5665 5667 5668 5668 5668 5669 5670 5671 5673 5674 5676 5677 5678 5679 5680 5680 5681 5682 5683 5684 5684 5685 5686 5688 5689
5573 5574 5573 5573 5574 5575 5578 5581 5582 5584 5585 5583 5583 5586 5589 5590 5591 5590 5591 5589 5584 5586 5591 5585 5580 5589 5601 5607 5612 5612 5609 5610 5612 5614 5616 5617 5616 5617 5620 5622 5621 5621 5622 5623 5623 5625 5629 5633 5636 5638 5639 5641 5643 5645 5646 5647 5648 5649 5651 5653 5654 5656 5657 5658 5658 5658 5659 5661 5662 5665 5666 5667 5667 5668 5669 5670 5671 5672 5673 5674 5675 5676 5677 5678 5679 5680
5569 5570 5570 5569 5570 5572 5575 5577 5579 5579 5577 5575 5577 5580 5582 5581 5583 5583 5581 5578 5578 5579 5579 5577 5578 5581 5589 5599 5604 5602 5600 5601 5606 5608 5609 5609 5608 5608 5612 5613 5613 5614 5613 5613 5613 5614 5617 5622 5625 5627 5629 5630 5632 5635 5636 5637 5638 5639 5640 5643 5645 5646 5648 5648 5648 5648 5649 5651 5653 5656 5658 5659 5658 5659 5660 5661 5661 5663 5664 5665 5666 5667 5668 5669 5670 5672
5565 5566 5567 5566 5566 5569 5570 5572 5574 5573 5569 5570 5571 5573 5574 5575 5576 5576 5572 5571 5575 5571 5565 5571 5576 5572 5577 5589 5594 5595 5595 5597 5600 5601 5600 5602 5602 5602 5601 5601 5602 5604 5605 5605 5605 5605 5607 5610 5613 5616 5619 5620 5622 5624 5626 5628 5629 5629 5630 5632 5635 5636 5636 5637 5637 5638 5640 5642 5644 5647 5649 5650 5649 5649 5651 5651 5652 5653 5654 5655 5656 5657 5659 5660 5661 5662
5560 5561 5565 5563 5561 5564 5565 5565 5567 5566 5563 5564 5564 5565 5568 5569 5568 5567 5565 5567 5569 5562 5556 5565 5569 5564 5569 5579 5584 5589 5592 5591 5592 5592 5591 5592 5594 5594 5593 5592 5592 5594 5595 5596 5597 5597 5597 5598 5602 5605 5608 5610 5612 5614 5617 5618 5619 5620 5620 5622 5624 5624 5625 5626 5627 5628 5631 5632 5635 5637 5639 5639 5639 5640 5640 5641 5642 5644 5645 5646 5647 5648 5649 5651 5652 5653
5554 5557 5562 5559 5555 5558 5559 5559 5560 5559 5558 5557 5558 5559 5561 5561 5560 5559 5558 5559 5560 5554 5553 5559 5560 5558 5565 5571 5575 5581 5584 5582 5581 5581 5581 5583 5585 5586 5585 5584 5585 5586 5586 5586 5587 5587 5587 5587 5590 5593 5596 5600 5603 5605 5607 5608 5608 5609 5610 5611 5613 5614 5615 5615 5616 5619 5621 5623 5626 5628 5628 5628 5629 5629 5630 5630 5632 5633 5635 5636 5637 5638 5640 5641 5642 5643
5548 5552 5557 5552 5546 5549 5554 5555 5554 5553 5552 5550 5550 5552 5552 5551 5551 5550 5550 5553 5552 5549 5551 5554 5550 5550 5559 5565 5566 5570 5573 5573 5572 5573 5574 5576 5577 5577 5576 5576 5577 5578 5577 5576 5575 5576 5576 5577 5579 5581 5584 5588 5592 5595 5596 5597 5597 5598 5600 5602 5604 5605 5605 5605 5606 5610 5612 5615 5618 5618 5618 5618 5618 5618 5618 5619 5620 5622 5625 5626 5627 5628 5630 5630 5631 5631
5544 5545 5549 5545 5537 5540 5550 5551 5547 5547 5544 5539 5539 5543 5545 5544 5544 5545 5547 5549 5547 5545 5545 5544 5539 5541 5552 5558 5558 5559 5563 5564 5565 5567 5568 5568 5568 5568 5566 5567 5568 5568 5567 5566 5565 5564 5564 5565 5568 5570 5572 5575 5580 5583 5585 5585 5586 5587 5590 5592 5593 5595 5596 5596 5598 5601 5603 5605 5607 5607 5607 5606 5606 5606 5607 5608 5610 5611 5614 5615 5616 5618 5619 5619 5619 5619
5539 5538 5541 5538 5530 5533 5543 5543 5540 5538 5528 5522 5530 5539 5541 5541 5541 5540 5541 5541 5542 5539 5535 5532 5533 5538 5545 5547 5548 5550 5554 5555 5556 5558 5558 5558 5558 5558 5558 5558 5558 5558 5557 5556 5555 5554 5553 5554 5556 5559 5562 5564 5567 5569 5572 5574 5576 5578 5580 5581 5583 5586 5588 5589 5590 5591 5592 5594 5595 5595 5596 5594 5594 5595 5597 5599 5600 5601 5602 5603 5605 5607 5608 5608 5608 5607
5535 5533 5533 5532 5525 5525 5533 5536 5531 5520 5510 5513 5529 5538 5537 5536 5534 5531 5529 5531 5534 5533 5529 5527 5529 5534 5537 5537 5538 5540 5542 5543 5544 5545 5547 5548 5549 5550 5551 5550 5549 5548 5547 5545 5543 5543 5544 5544 5544 5547 5551 5552 5553 5555 5558 5562 5564 5567 5570 5573 5575 5578 5579 5579 5579 5579 5580 5583 5584 5585 5584 5582 5583 5585 5587 5589 5589 5589 5590 5591 5593 5596 5596 5596 5596 5596
5529 5527 5526 5525 5520 5517 5524 5526 5514 5502 5506 5519 5530 5531 5528 5525 5522 5519 5519 5522 5526 5527 5526 5524 5523 5526 5528 5528 5529 5529 5529 5530 5532 5534 5537 5540 5540 5539 5539 5539 5538 5537 5535 5532 5530 5531 5534 5536 5536 5537 5538 5539 5540 5543 5545 5548 5550 5554 5559 5563 5565 5567 5568 5567 5567 5568 5570 5572 5574 5574 5573 5572 5573 5575 5577 5578 5577 5577 5579 5581 5582 5583 5584 5583 5584 5585
5523 5521 5518 5517 5514 5511 5513 5511 5499 5496 5508 5518 5517 5516 5518 5517 5516 5514 5511 5513 5519 5520 5518 5516 5515 5516 5517 5516 5517 5518 5519 5521 5522 5523 5526 5528 5527 5526 5524 5524 5525 5523 5522 5522 5522 5523 5525 5526 5527 5526 5527 5528 5529 5531 5532 5535 5538 5541 5545 5549 5552 5553 5555 5555 5556 5558 5559 5561 5563 5564 5563 5562 5562 5564 5566 5567 5567 5567 5569 5570 5571 5572 5572 5571 5572 5574
5515 5514 5511 5509 5507 5505 5502 5498 5493 5493 5498 5502 5505 5511 5514 5512 5513 5511 5502 5500 5509 5511 5507 5505 5504 5504 5505 5505 5507 5509 5510 5510 5507 5508 5512 5514 5513 5513 5511 5510 5510 5510 5512 5514 5515 5515 5515 5515 5515 5516 5517 5518 5518 5518 5520 5524 5527 5529 5531 5534 5536 5538 5540 5542 5544 5546 5548 5550 5552 5553 5552 5551 5551 5553 5555 5556 5556 5557 5559 5559 5560 5561 5561 5560 5561 5563
5507 5506 5505 5500 5498 5499 5494 5488 5487 5483 5482 5491 5501 5506 5507 5505 5505 5504 5491 5485 5494 5500 5497 5494 5493 5492 5494 5496 5497 5499 5499 5494 5490 5494 5500 5502 5500 5501 5501 5499 5499 5501 5503 5505 5504 5503 5504 5505 5505 5505 5506 5507 5507 5508 5510 5512 5514 5517 5519 5521 5522 5523 5525 5528 5530 5533 5536 5538 5540 5540 5540 5539 5539 5541 5543 5544 5545 5546 5548 5548 5549 5550 5549 5549 5551 5553
5502 5499 5498 5493 5490 5491 5487 5481 5479 5474 5474 5484 5492 5495 5497 5496 5496 5493 5478 5470 5481 5489 5486 5484 5483 5482 5484 5484 5485 5487 5485 5481 5480 5485 5489 5489 5489 5490 5491 5492 5492 5492 5492 5493 5494 5494 5494 5494 5494 5494 5495 5496 5497 5498 5500 5501 5502 5504 5506 5508 5510 5511 5512 5514 5517 5519 5522 5524 5526 5527 5527 5527 5527 5528 5530 5532 5534 5535 5536 5537 5538 5538 5538 5538 5539 5542
5497 5494 5492 5487 5483 5483 5480 5475 5471 5468 5470 5478 5481 5482 5484 5485 5485 5478 5463 5459 5473 5479 5474 5473 5473 5472 5474 5475 5475 5476 5475 5473 5473 5475 5476 5477 5479 5480 5481 5482 5482 5482 5481 5481 5483 5484 5484 5484 5484 5485 5485 5486 5487 5488 5489 5490 5491 5492 5493 5495 5497 5498 5500 5502 5504 5505 5507 5509 5511 5512 5513 5514 5514 5515 5517 5518 5520 5522 5523 5524 5525 5526 5526 5526 5527 5529
5490 5487 5485 5481 5477 5476 5474 5469 5465 5464 5466 5470 5471 5471 5472 5474 5471 5463 5453 5455 5466 5469 5465 5464 5464 5464 5467 5467 5467 5468 5468 5466 5465 5465 5466 5467 5469 5470 5471 5471 5471 5472 5472 5472 5472 5474 5475 5475 5476 5476 5476 5476 5477 5478 5479 5480 5480 5481 5481 5483 5484 5485 5487 5489 5491 5492 5494 5495 5497 5498 5499 5500 5500 5501 5503 5504 5505 5507 5510 5511 5512 5513 5514 5515 5515 5517
5481 5478 5476 5474 5470 5469 5467 5462 5458 5458 5460 5462 5462 5462 5462 5462 5456 5450 5449 5453 5456 5457 5457 5456 5455 5457 5459 5458 5458 5459 5459 5458 5458 5458 5458 5458 5458 5459 5460 5461 5461 5462 5463 5463 5463 5464 5465 5465 5466 5467 5467 5467 5467 5468 5469 5470 5470 5470 5470 5471 5472 5473 5474 5476 5478 5480 5481 5483 5484 5485 5486 5487 5487 5488 5490 5491 5491 5492 5495 5497 5497 5498 5501 5502 5503 5505
5472 5467 5465 5466 5463 5460 5458 5455 5451 5449 5452 5455 5455 5453 5453 5450 5444 5441 5444 5445 5445 5445 5447 5446 5447 5449 5449 5449 5449 5450 5450 5450 5449 5449 5450 5449 5449 5450 5450 5451 5452 5453 5453 5454 5454 5455 5455 5456 5457 5457 5457 5457 5457 5457 5458 5459 5459 5460 5459 5460 5460 5461 5462 5463 5465 5467 5469 5470 5472 5473 5474 5476 5476 5477 5477 5479 5479 5480 5482 5483 5484 5485 5486 5488 5490 5492
5462 5458 5454 5454 5453 5449 5444 5444 5445 5444 5446 5447 5445 5442 5442 5439 5435 5433 5434 5434 5434 5434 5435 5436 5437 5437 5437 5438 5439 5440 5441 5441 5440 5440 5440 5440 5440 5441 5440 5442 5443 5443 5444 5445 5445 5446 5446 5446 5446 5447 5447 5448 5448 5447 5448 5448 5448 5449 5449 5448 5449 5450 5451 5451 5452 5454 5456 5457 5459 5461 5462 5464 5465 5465 5466 5468 5468 5469 5471 5472 5472 5473 5473 5475 5476 5478
5452 5450 5444 5440 5442 5439 5433 5434 5438 5438 5436 5434 5431 5430 5429 5427 5424 5422 5422 5423 5423 5423 5424 5425 5425 5426 5426 5427 5428 5429 5431 5430 5430 5431 5431 5430 5431 5432 5431 5432 5433 5433 5435 5435 5435 5436 5437 5437 5437 5437 5437 5438 5439 5438 5438 5438 5438 5439 5439 5438 5438 5439 5440 5440 5441 5442 5443 5445 5446 5448 5450 5452 5453 5453 5455 5456 5457 5459 5460 5461 5462 5463 5463 5464 5465 5466
5443 5440 5434 5429 5430 5428 5424 5426 5428 5424 5423 5423 5419 5417 5415 5412 5411 5411 5412 5413 5412 5412 5413 5414 5414 5416 5416 5416 5418 5419 5420 5419 5420 5421 5421 5422 5422 5422 5423 5423 5424 5425 5426 5426 5426 5427 5427 5428 5428 5428 5428 5429 5429 5429 5429 5428 5428 5429 5429 5429 5429 5429 5430 5431 5431 5431 5432 5433 5434 5436 5438 5440 5441 5441 5443 5444 5445 5447 5449 5450 5452 5453 5453 5454 5455 5455
5434 5429 5424 5422 5419 5414 5412 5417 5416 5410 5409 5410 5406 5403 5401 5398 5398 5399 5400 5402 5403 5402 5402 5402 5403 5405 5406 5406 5407 5409 5409 5409 5410 5411 5412 5412 5412 5413 5414 5414 5415 5416 5417 5417 5418 5418 5419 5419 5419 5419 5419 5419 5420 5420 5420 5420 5420 5420 5420 5420 5420 5420 5421 5421 5422 5422 5423 5423 5423 5424 5426 5428 5429 5430 5431 5432 5433 5435 5437 5439 5441 5442 5443 5444 5444 5445
5422 5417 5415 5414 5407 5399 5398 5403 5403 5398 5397 5395 5391 5390 5390 5388 5387 5387 5387 5389 5391 5391 5391 5392 5392 5394 5396 5396 5397 5399 5399 5400 5400 5401 5402 5402 5402 5404 5404 5405 5406 5407 5407 5408 5409 5409 5410 5410 5410 5411 5411 5411 5412 5412 5412 5412 5412 5411 5411 5411 5411 5412 5412 5412 5412 5413 5414 5414 5414 5415 5416 5417 5418 5419 5420 5421 5423 5424 5425 5427 5429 5431 5432 5433 5434 5435
5409 5405 5405 5400 5391 5386 5387 5389 5387 5383 5382 5382 5380 5378 5377 5375 5375 5376 5376 5376 5378 5379 5380 5381 5381 5382 5384 5386 5388 5389 5390 5390 5391 5392 5392 5392 5393 5394 5395 5396 5397 5398 5398 5399 5400 5401 5401 5402 5402 5403 5403 5403 5403 5404 5403 5403 5403 5403 5403 5403 5403 5403 5403 5403 5403 5404 5404 5404 5405 5405 5406 5407 5407 5408 5410 5411 5412 5413 5415 5416 5418 5419 5421 5422 5424 5424
5395 5392 5392 5383 5373 5373 5376 5376 5373 5366 5365 5369 5370 5368 5366 5364 5363 5364 5366 5366 5366 5367 5368 5369 5370 5371 5373 5375 5377 5379 5380 5381 5382 5382 5382 5383 5384 5384 5385 5386 5387 5388 5390 5390 5391 5392 5393 5393 5393 5394 5394 5394 5395 5395 5395 5395 5395 5395 5395 5395 5395 5395 5395 5395 5395 5395 5395 5396 5396 5396 5397 5397 5398 5398 5400 5401 5402 5403 5404 5406 5407 5409 5410 5412 5413 5414
5384 5380 5378 5368 5359 5358 5361 5362 5360 5354 5351 5355 5358 5357 5356 5354 5352 5353 5355 5355 5354 5355 5356 5357 5359 5361 5362 5364 5366 5367 5368 5369 5371 5372 5373 5373 5374 5374 5375 5376 5377 5378 5380 5381 5382 5383 5384 5384 5385 5385 5385 5386 5386 5387 5387 5387 5386 5386 5387 5387 5387 5387 5387 5387 5387 5386 5387 5387 5387 5387 5388 5388 5388 5389 5390 5391 5392 5393 5395 5396 5398 5399 5400 5401 5402 5403